STARLINK-32363, 61678

Orbit data source: Space-Track

STARLINK-32363, 61678 is a payload satellite owned by SpaceX/Seattle (US) in LEO that was launched on Sat, 26 Oct 2024 UTC via an FALCON 9 launch vehicle from the Air Force Eastern Test Range (AFETR). Payload-class satellites include a variety of spacecraft equipped with specific instruments for various scientific and technological missions. These include communications satellites like Starlink; space stations such as the ISS; scientific satellites like the Hubble; Earth observation satellites from companies like Planet Labs, Umbra, and HawkEye 360; GPS; miniature CubeSats for education and research; and military/defense satellites.

Loading next visibility...
Identifier
61678, 2024-193T
Orbit
LEO
Country
Flag of USUS
Related business
Manufacturer
SpaceX/Seattle
Mission
Operational Commercial Communications
Bus & Motor
STARLINK V2M, Unknown motor
Mass
730 kg wet, ~700 kg dry
Launch date (UTC)
2024-10-26 (1 year ago)
Launch vehicle
FALCON 9
Launch site
Air Force Eastern Test Range (AFETR)
Object type
Payload
Rocket body
Debris
Shape & HBR
Box + 2 Pan, 17.7 m
Radar Cross Section
33.884 m², Large (>1 m²)

Expand to show TLE details & history
Last TLE update: 21 hours ago

TLE from 21 hours ago
0 STARLINK-32363
1 61678U 24193T   26036.76763874  .00002459  00000-0  95119-4 0  9991
2 61678  53.1578 238.9575 0001061  95.7969 264.3153 15.30202740 71647
Epoch: 2026-02-05T18:25Z
TLE epoch observation values (Epoch: 2026-02-05T18:25:23.987Z)
Latitude
0.00002°
Longitude
-173.30757°
Altitude
476.178 km
Speed
7.629 km/s
True Right ascension
15h 55m 49s
True Declination
0° 00' 00"
Sunlit
Object was in daylight at epoch
Visualization orbit readout
Latitude
Unknown
Longitude
Unknown
Altitude
Unknown
Speed
Unknown
Apparent Right ascension
Unknown
Apparent Declination
Unknown
Sunlit
N/A
Visualization observer readout
Local Sidereal Time
17:09:32
Azimuth
Unknown
Elevation
Unknown
Doppler factor
Unknown
Orbital elements
Apogee altitude
476.191 km
Perigee altitude
474.737 km
Semi-major axis
6,853.601 km
Eccentricity
0.00011
Inclination
53.1578°
RAAN
238.9575°
Arg. of periapsis
95.7969°
True anomaly
264.3032°
Mean anomaly
264.3153°
Eccentric anomaly
264.30925°
Mean motion
3.8253 °/min
Orbital period
94.11 mins
BSTAR
0.000095119
Loading maneuver chart data...
Computing Atmospheric mass density...
Loading historical data...
Loading historical data...
Loading historical data...
Loading historical data...
Loading historical data...
Loading historical data...
Loading historical data...

Documentation

Showing up to 5 results
|